weather.gov     
National Weather Service

Regional Weather Roundup
NWS Homepage
This page is being discontinued on March 12, 2014.
The same data is available at this site. Please update your bookmarks.
Thank you, and we apologize for the inconvenience.
Please send an email to SR-SRH.Webmaster@noaa.gov with any concerns.


Current Version
Previous Version:    01  02  03  04  05  06  07  08  09  
[Printable]
278
ASUS42 KTBW 312110
RWRFL
FLORIDA REGIONAL WEATHER ROUNDUP
NATIONAL WEATHER SERVICE TAMPA BAY RUSKIN FL
500 PM EDT FRI OCT 31 2014

NOTE: "FAIR" INDICATES FEW OR NO CLOUDS BELOW 12,000 FEET WITH NO
SIGNIFICANT WEATHER AND/OR OBSTRUCTIONS TO VISIBILITY.


FLZ001>010-012>015-112-114-115-312200-
PANHANDLE FLORIDA

CITY           SKY/WX    TMP DP  RH WIND       PRES   REMARKS
PENSACOLA      MOSUNNY   73  44  35 NW13      29.91S
PENSACOLA NAS  PTSUNNY   73  45  36 W8G17     29.91R
MILTON NAS     MOSUNNY   73  45  36 W14       29.91R
CRESTVIEW      MOSUNNY   72  46  39 NW8       29.91S
DUKE FIELD     MOSUNNY   73  44  36 W10       29.90R
VALPARAISO     MOSUNNY   76  44  32 N12G20    29.89F
MARY ESTHER    PTSUNNY   73  43  33 W14       29.89S
TRI COUNTY     FAIR      71  44  37 CALM      29.89S
PANAMA CITY    FAIR      75  40  28 W8        29.88S
TYNDALL AFB    SUNNY     72  51  46 W14       29.89S
APALACHICOLA   SUNNY     76  44  32 NW12      29.88S

STATION/POSITION SKY/WX   TEMP    WIND        PRES    WAVE   SWELL
                          AIR SEA DIR/SP/G            HT/PER HT/PER
                          (F)     (DEG/KT/KT) (MB)    (FT/S) (FT/S)
30.1N   87.6W              71 77  270/ 12/ 14 1013.1F   1/ 3
29.2N   88.2W              71 78  300/ 16/ 21 1014.9F   2/ 4
28.8N   86.0W              71 78  320/ 16/ 19 1013.0F   3/ 5
PANAMA CITY BEAC           69 76  270/ 14/ 17 1012.2R
CAPE SAN BLAS    NOT AVBL
TOWER C                    68     300/ 16/ 18 1011.8S
28.5N   84.5W              70 79  310/ 17/ 21 1011.9F   4/ 5

$$
FLZ011-016>038-118-127-128-134-139-239-312200-
NORTH FLORIDA

CITY           SKY/WX    TMP DP  RH WIND       PRES   REMARKS
MARIANNA       SUNNY     73  41  31 W13G18    29.87S
TALLAHASSEE    MOSUNNY   75  36  24 NW9       29.86S
PERRY          SUNNY     72  39  29 NW8       29.85S
CROSS CITY       N/A     74  41  30 NW9       29.84R
LAKE CITY      FAIR      72  39  30 N8        29.83R
GAINESVILLE    SUNNY     72  44  36 NW12      29.82R
MAYPORT NAS    MOSUNNY   72  54  53 CALM      29.80R
JACKSONVILLE   MOSUNNY   72  51  47 NW10      29.80R
JAX NAS        MOSUNNY   77  47  34 NW10      29.81R
JAX CRAIG      MOSUNNY   74  49  41 NW8       29.80R
JAX CECIL      MOSUNNY   73  48  40 W12       29.81R
FERNANDINA BEA FAIR      77  50  38 NW7       29.79R
ST AUGUSTINE   MOSUNNY   75  54  47 VRB5      29.80S

STATION/POSITION SKY/WX   TEMP    WIND        PRES    WAVE   SWELL
                          AIR SEA DIR/SP/G            HT/PER HT/PER
                          (F)     (DEG/KT/KT) (MB)    (FT/S) (FT/S)
SHELL POINT                72     320/ 12/ 15   N/A
KEATON BEACH               70     290/ 12/ 14 1010.9R
CEDAR KEY                  69     300/  9/ 12 1011.0F
FERNANDINA                 71 75  310/  7/  9 1008.4S
30.7N   81.3W                 76                N/A     3/ 6
MAYPORT                    72 76  340/  7/ 10   N/A
31.4N   80.9W              68 74   20/  8/ 10 1008.8F   3/ 6   3/ 6
ST AUGUSTINE               70      10/ 13/ 14 1009.5R

$$
FLZ040-043>046-052-053-057-058-063-144-312200-
INTERIOR CENTRAL FLORIDA

CITY           SKY/WX    TMP DP  RH WIND       PRES   REMARKS
OCALA          SUNNY     73  43  33 NW9       29.83R SMOKE
THE VILLAGES     N/A     73  45  35 W13       29.72S
LEESBURG       SUNNY     75  47  36 NW8       29.82R
SANFORD        SUNNY     77  43  29 W10       29.79S
ORLANDO EXEC   SUNNY     77  47  34 W14       29.80R
ORLANDO INTL   SUNNY     77  45  32 W12       29.80R
KISSIMMEE      SUNNY     77  45  31 NW15      29.81R
WINTER HAVEN   SUNNY     75  42  30 NW13      29.83R
LAKELAND         N/A     73  45  35 NW15      29.83S
BARTOW         SUNNY     73  41  31 NW14      29.83R
OKEECHOBEE       N/A     79  59  50 MISG      29.79

$$
FLZ041-047-054-059-064-141-147-312200-
EAST CENTRAL FLORIDA

CITY           SKY/WX    TMP DP  RH WIND       PRES   REMARKS
ORMOND BEACH   MOSUNNY   75  54  46 N12G17    29.79S
DAYTONA BEACH  MOSUNNY   75  52  44 NW8       29.79R
DELAND         CLEAR     73  54  49 NW13      29.81R
NEW SMYRNA BEA SUNNY     77  50  38 W12       29.79S
JFK SPACE CTR  SUNNY     78  50  37 NW10      29.77S
TITUSVILLE     SUNNY     79  46  31 W14       29.78S
CAPE CANAVERAL SUNNY     78  49  36 NW13      29.77R
PATRICK AFB    SUNNY     79  53  39 W14       29.77S
MELBOURNE      SUNNY     80  49  33 W15       29.77R
VERO BEACH     SUNNY     79  59  50 NW10      29.77R
FT PIERCE      SUNNY     81  61  50 W15       29.77R
STUART         PTSUNNY   81  64  57 NW14      29.77S

STATION/POSITION SKY/WX   TEMP    WIND        PRES    WAVE   SWELL
                          AIR SEA DIR/SP/G            HT/PER HT/PER
                          (F)     (DEG/KT/KT) (MB)    (FT/S) (FT/S)
28.5N   80.2W              74 81  330/ 14/ 16 1008.0S
28.9N   78.5W              73 81  210/  4/  8 1007.5R   3/ 8   3/ 8
TRIDENT PIER               78 78  280/  9/ 13 1007.7R
28.4N   80.5W                 78                N/A     2/ 8
27.6N   80.2W                 79                N/A     2/ 8

$$
FLZ050-056-061-142-242-148-248-149-249-151-251-155-255-
160-260-312200-
WEST CENTRAL FLORIDA

CITY           SKY/WX    TMP DP  RH WIND       PRES   REMARKS
CRYSTAL RIVER  FAIR      70  46  43 W13G18    29.84S
INVERNESS      FAIR      72  48  43 W6        29.84R
BROOKSVILLE    SUNNY     71  47  42 NW15      29.85R
ZEPHYRHILLS    FAIR      72  41  33 W14       29.84S
CLEARWATER     SUNNY     72  52  49 NW14      29.86R
TAMPA INTL     SUNNY     72  48  42 NW15      29.85S
TAMPA EXEC     SUNNY     73  45  35 NW12      29.85S
PLANT CITY     SUNNY     75  37  25 NW12      29.85S
MACDILL AFB    SUNNY     74  55  51 NW12G18   29.86R
ST PETERSBURG  SUNNY     72  52  49 N8G26     29.84R
SARASOTA       SUNNY     73  51  46 NW14      29.84S
VENICE           N/A     73  55  53 NW15G24   29.85S

STATION/POSITION SKY/WX   TEMP    WIND        PRES    WAVE   SWELL
                          AIR SEA DIR/SP/G            HT/PER HT/PER
                          (F)     (DEG/KT/KT) (MB)    (FT/S) (FT/S)
CEDAR KEY                  69     300/  9/ 12 1011.0F
28.5N   84.5W              70 79  310/ 17/ 21 1011.9F   4/ 5
27.3N   84.3W                 80                N/A     4/ 6
CLEARWATER BEACH           71 76  330/ 16/ 18 1010.7R
MIDDLE TAMPA BAY           71     340/ 16/ 18 1011.1R
VENICE                     72 79  330/ 20/ 22 1010.3R

$$
FLZ066-069-070-075>078-162-262-165-265-312200-
SOUTHWEST FLORIDA AND KEYS

CITY           SKY/WX    TMP DP  RH WIND       PRES   REMARKS
PUNTA GORDA    SUNNY     79  58  48 NW14      29.84R
FT MYERS       SUNNY     77  59  53 W15       29.81R
SOUTHWEST INTL SUNNY     76  59  55 NW12      29.82R
NAPLES         MOSUNNY   78  63  59 NW13G20   29.83R
MARCO ISLAND   CLEAR     79  63  57 NW15      29.82R
MARATHON       SUNNY     83  70  64 W9        29.82R
KEY WEST NAS   PTSUNNY   82  70  66 NW16      29.83R
KEY WEST INTL  MOSUNNY   82  73  74 N16G23    29.83R

STATION/POSITION SKY/WX   TEMP    WIND        PRES    WAVE   SWELL
                          AIR SEA DIR/SP/G            HT/PER HT/PER
                          (F)     (DEG/KT/KT) (MB)    (FT/S) (FT/S)
VENICE                     72 79  330/ 20/ 22 1010.3R
NAPLES                     74 84  320/ 14/ 20 1010.4S
26.0N   85.6W              74 80  330/ 14/ 19 1013.2S   3/ 6
DRY TORTUGAS               79     330/ 16/ 18 1010.6R
NW FL BAY                  80     290/ 10/ 12 1009.6F
SAND KEY                   78     330/ 17/ 19 1010.1R
SOMBRERO KEY               80     290/ 13/ 16 1010.4R
LONG KEY                   79 81  280/ 12/ 14 1010.2F
MOLASSES REEF              80 82  260/ 16/ 17 1009.2R

$$
FLZ067-068-071>074-168-172>174-312200-
SOUTHEAST FLORIDA

CITY           SKY/WX    TMP DP  RH WIND       PRES   REMARKS
W PALM BEACH   PTSUNNY   80  69  69 W8        29.76S
FT LAUDER-EXEC MOSUNNY   83  62  49 W8        29.76S
FT LAUDERDALE  MOSUNNY   84  67  56 W8        29.76S
POMPANO BEACH  MOSUNNY   86  63  45 W13       29.76F
PEMBROKE PINES MOSUNNY   85  65  51 W9        29.78S
OPA LOCKA      MOSUNNY   84  65  52 W14       29.77S
MIAMI          MOSUNNY   85  63  47 W9        29.78R
WEST KENDALL   MOSUNNY   87  64  46 W13       29.78S
HOMESTEAD      SUNNY     83  64  53 W12       29.79R

STATION/POSITION SKY/WX   TEMP    WIND        PRES    WAVE   SWELL
                          AIR SEA DIR/SP/G            HT/PER HT/PER
                          (F)     (DEG/KT/KT) (MB)    (FT/S) (FT/S)
PORT EVERGLADES            82     240/  7/ 12 1007.9
VIRGINIA KEY               84 81  280/  8/ 11 1008.6R
LAKE WORTH                 80 82   CALM  /  3 1007.6S
FOWEY ROCKS                82 80  260/ 11/ 13 1008.6R




U.S. Dept. of Commerce
NOAA National Weather Service
1325 East West Highway
Silver Spring, MD 20910
E-mail: w-nws.webmaster@noaa.gov
Page last modified: May 16, 2007
NATIONAL WEATHER SERVICE: for Safety, for Work, for Fun - FOR LIFE